GW6711 Weather Reports


time (UTC)temp
C
wind
direction
speed
KPH
gust
KPH
rain 1hr
cm
rain 24hr
cm
rain mn
cm
humidity
%
barometer
mb
20260906234555 18 333 3.2 8.0 0.00 0.23 0.05 68 1016.6
20260906233055 18 300 1.6 9.7 0.00 0.23 0.05 69 1016.7
20260906231601 17 307 1.6 8.0 0.00 0.23 0.05 69 1016.7
20260906230113 17 275 4.8 9.7 0.00 0.23 0.05 68 1017.2
20260906224608 16 271 6.4 11.3 0.00 0.23 0.05 68 1017.3
20260906223053 16 288 4.8 12.9 0.00 0.23 0.05 66 1017.5
20260906221600 17 290 3.2 6.4 0.00 0.23 0.05 69 1017.5
20260906214558 17 358 0.0 4.8 0.00 0.23 0.05 69 1017.5
20260906213054 17 0 1.6 6.4 0.00 0.23 0.05 69 1017.4
20260906211557 17 63 3.2 8.0 0.00 0.23 0.05 69 1017.4
20260906204604 17 37 0.0 6.4 0.00 0.23 0.05 68 1017.4
20260906203049 17 27 1.6 4.8 0.00 0.23 0.05 68 1017.4
20260906201605 17 46 1.6 8.0 0.00 0.23 0.05 68 1017.5
20260906200053 17 25 1.6 6.4 0.00 0.23 0.05 68 1017.6
20260906194553 17 56 3.2 9.7 0.00 0.23 0.05 69 1017.7
20260906193101 17 54 1.6 9.7 0.00 0.23 0.05 69 1017.8
20260906191553 17 74 3.2 11.3 0.00 0.23 0.05 69 1017.8
20260906190058 18 39 3.2 11.3 0.00 0.23 0.05 68 1017.8
20260906184554 17 16 3.2 14.5 0.00 0.23 0.05 65 1017.7
20260906183112 16 55 1.6 9.7 0.00 0.23 0.05 48 1017.8
20260906181619 16 310 3.2 8.0 0.00 0.23 0.05 28 1018.0
20260906180115 15 37 3.2 9.7 0.03 0.23 0.05 100 1017.9
20260906174556 13 77 1.6 8.0 0.03 0.23 0.05 100 1018.7
20260906173050 13 91 1.6 8.0 0.03 0.23 0.05 100 1018.5
20260906171549 13 296 3.2 9.7 0.00 0.20 0.03 100 1019.9
20260906170053 13 281 3.2 9.7 0.00 0.20 0.03 100 1019.9
20260906164552 13 243 1.6 3.2 0.00 0.20 0.03 100 1019.8
20260906163050 13 0 0.0 3.2 0.03 0.20 0.03 100 1019.7
20260906161603 12 302 0.0 6.4 0.03 0.20 0.03 100 1019.5
20260906160056 12 305 3.2 8.0 0.03 0.20 0.03 100 1019.5
20260906154554 12 291 4.8 11.3 0.03 0.20 0.03 100 1019.8
20260906153054 12 287 6.4 16.1 0.00 0.18 0.00 100 1020.2
20260906151548 12 342 8.0 24.1 0.00 0.18 0.00 4 1020.3
20260906150059 12 283 9.7 20.9 0.00 0.18 0.00 10 1020.3
20260906144602 12 264 11.3 33.8 0.00 0.20 0.00 17 1020.4
20260906143053 13 274 12.9 24.1 0.00 0.20 0.00 42 1020.7
20260906141606 14 304 0.0 3.2 0.00 0.20 0.00 30 1020.4
20260906140058 14 0 0.0 3.2 0.00 0.20 0.00 32 1020.2
20260906134601 15 0 0.0 4.8 0.00 0.30 0.00 36 1020.0
20260906133058 14 53 1.6 6.4 0.00 0.30 0.00 32 1019.9
20260906131606 13 19 0.0 11.3 0.00 0.30 0.00 24 1019.7
20260906130110 13 51 0.0 9.7 0.00 0.30 0.00 20 1019.7
20260906124554 13 319 1.6 6.4 0.00 0.30 0.00 20 1020.2
20260906123054 13 48 1.6 6.4 0.00 0.30 0.00 13 1019.9
20260906121556 13 37 3.2 6.4 0.00 0.30 0.00 14 1019.6
20260906120101 13 11 1.6 9.7 0.00 0.30 0.00 16 1019.9
20260906114607 13 359 1.6 6.4 0.00 0.30 0.00 17 1020.2
20260906113056 12 17 1.6 8.0 0.00 0.30 0.00 23 1020.1
20260906111558 13 31 1.6 11.3 0.00 0.30 0.00 35 1020.0
20260906110059 13 44 3.2 11.3 0.00 0.30 0.00 39 1019.9
20260906104556 13 18 4.8 12.9 0.00 0.30 0.00 42 1020.0
20260906103053 13 45 3.2 11.3 0.00 0.30 0.00 39 1020.1
20260906101552 13 355 4.8 14.5 0.00 0.30 0.00 45 1020.1
20260906100058 13 321 4.8 19.3 0.00 0.30 0.00 38 1020.2
20260906094554 13 4 3.2 11.3 0.00 0.30 0.00 33 1020.2
20260906093054 13 18 6.4 16.1 0.00 0.30 0.00 34 1020.2
20260906091550 13 287 6.4 14.5 0.00 0.30 0.00 35 1020.3
20260906090058 13 279 8.0 17.7 0.00 0.30 0.00 43 1020.7
20260906084556 14 355 8.0 16.1 0.00 0.30 0.00 50 1021.1
20260906083059 13 11 6.4 20.9 0.00 0.30 0.00 30 1021.3
20260906081619 13 321 3.2 8.0 0.00 0.30 0.00 42 1021.4
20260906080050 13 67 1.6 16.1 0.00 0.30 0.00 43 1020.8
20260906074614 13 351 4.8 14.5 0.00 0.30 0.00 46 1020.7
20260906073053 13 316 6.4 14.5 0.00 0.30 0.00 43 1020.7
20260906071555 13 16 3.2 11.3 0.00 0.30 0.00 36 1020.9
20260906070051 13 354 4.8 11.3 0.00 0.30 0.00 39 1021.0
20260906064558 13 330 4.8 16.1 0.00 0.30 0.00 31 1021.6
20260906063055 13 276 4.8 11.3 0.00 0.30 0.00 41 1021.9
20260906061559 13 63 6.4 17.7 0.00 0.30 0.00 42 1021.6
20260906054549 13 6 3.2 9.7 0.00 0.30 0.30 48 1021.7
20260906053053 13 15 1.6 8.0 0.00 0.30 0.30 48 1021.5
20260906051600 13 321 4.8 11.3 0.00 0.30 0.30 48 1021.3
20260906050059 13 348 6.4 16.1 0.00 0.30 0.30 45 1021.1
20260906044556 13 26 8.0 16.1 0.00 0.30 0.30 45 1020.9
20260906043052 13 349 4.8 12.9 0.00 0.30 0.30 42 1021.5
20260906041553 13 340 6.4 14.5 0.18 0.30 0.30 41 1020.6
20260906034557 13 286 1.6 12.9 0.18 0.30 0.30 59 1020.7
20260906033054 14 316 4.8 12.9 0.18 0.30 0.30 61 1021.3
20260906031558 15 352 3.2 12.9 0.00 0.13 0.13 68 1021.8
20260906030058 15 316 8.0 19.3 0.00 0.13 0.13 69 1020.6
20260906024554 15 315 8.0 20.9 0.00 0.13 0.13 69 1019.7
20260906023053 15 27 6.4 19.3 0.00 0.13 0.13 68 1019.5
20260906021550 16 340 4.8 8.0 0.00 0.13 0.13 66 1019.5
20260906020104 16 1 3.2 12.9 0.00 0.13 0.13 64 1019.6
20260906014555 17 36 3.2 8.0 0.00 0.13 0.13 61 1019.6
20260906013104 18 16 3.2 9.7 0.00 0.13 0.13 59 1019.6
20260906011551 18 65 1.6 11.3 0.00 0.13 0.13 58 1019.4
20260906010101 18 22 1.6 11.3 0.00 0.13 0.13 57 1019.7
20260906004552 19 78 1.6 12.9 0.00 0.13 0.13 55 1019.6
20260906003105 20 86 4.8 14.5 0.00 0.13 0.13 52 1019.7
20260906001559 21 357 3.2 11.3 0.00 0.13 0.13 50 1019.6
20260906000057 22 44 4.8 16.1 0.00 0.13 0.13 47 1019.6